Flag for United Kingdom Weather past 2 weeks in Stoke-on-Trent, England, United Kingdom

Now
45 °F

Passing clouds.


Feels Like: 45 °F
Forecast: 47 / 66 °F
Wind: No wind

Location: Manchester Airport

Current Time: Oct 2, 2014 at 1:33:22 AM

Latest Report: Oct 2, 2014 at 12:50 AM


Visibility: N/A

Pressure: 30.42 "Hg

Humidity: 100%

Dew point: 45 °F

Location of Stoke-on-TrentLocation

Historic Weather in Stoke-on-Trent — Graph

°F

Stoke-on-Trent temperature yesterday

Maximum temperature yesterday: 64 °F (at 11:50 AM)
Minimum temperature yesterday: 45 °F (at 11:50 PM)
Average temperature yesterday: 58 °F

Past Weeks' High & Low Weather Summary

 TemperatureHumidityPressure
High72 °F (Sep 18, 3:20 PM)100% (Sep 17, 5:50 AM)30.42 "Hg (Sep 17, 5:50 AM)
Low39 °F (Sep 22, 3:50 AM)52% (Sep 21, 1:50 PM)29.86 "Hg (Sep 18, 4:20 AM)
Average57 °F86%30.10 "Hg
* Reported Sep 17 12:20 AM — Oct 2 12:20 AM, Stoke-on-Trent, Weather by CustomWeather, © 2014

Note: Actual official high and low records may vary slightly from our data, if they occured in-between our weather recording intervals... More about our weather records

Advertising

Stoke-on-Trent weather history for previous 24 hours

 ConditionsComfort  
Time TempWeatherWind HumidityBarometerVisibility
12:20 AM
Oct 2
45 °FPassing clouds.No wind93%30.42 "HgN/A
11:50 PM
Oct 1
45 °FClear.2 mph100%30.42 "Hg10 mi
11:20 PM46 °FClear.No wind93%30.39 "Hg10 mi
10:50 PM46 °FCool.No wind100%30.39 "HgN/A
10:20 PM48 °FClear.2 mph87%30.39 "Hg10 mi
9:50 PM54 °FClear.2 mph77%30.39 "Hg10 mi
9:20 PM54 °FClear.2 mph77%30.39 "Hg10 mi
8:50 PM54 °FClear.3 mph77%30.36 "Hg10 mi
8:20 PM55 °FClear.3 mph72%30.36 "Hg10 mi
7:50 PM55 °FPassing clouds.6 mph77%30.36 "HgN/A
7:20 PM57 °FPartly sunny.6 mph72%30.36 "HgN/A
6:50 PM57 °FScattered clouds.6 mph77%30.33 "HgN/A
6:20 PM59 °FBroken clouds.7 mph77%30.33 "HgN/A
5:50 PM59 °FPartly sunny.7 mph82%30.30 "HgN/A
5:20 PM59 °FBroken clouds.5 mph88%30.30 "HgN/A
4:50 PM57 °FBroken clouds.8 mph88%30.30 "HgN/A
4:20 PM59 °FBroken clouds.9 mph94%30.27 "HgN/A
3:50 PM59 °FBroken clouds.10 mph94%30.27 "HgN/A
3:20 PM61 °FScattered showers. Broken clouds.13 mph88%30.24 "HgN/A
2:50 PM63 °FPartly sunny.12 mph77%30.24 "HgN/A
2:20 PM63 °FPartly sunny.9 mph77%30.21 "HgN/A
1:50 PM64 °FScattered clouds.3 mph73%30.21 "HgN/A
1:20 PM63 °FScattered clouds.3 mph77%30.21 "HgN/A
12:50 PM63 °FPartly sunny.7 mph73%30.21 "HgN/A
12:20 PM64 °FBroken clouds.7 mph68%30.21 "HgN/A
11:50 AM64 °FScattered clouds.7 mph73%30.21 "HgN/A
11:20 AM61 °FScattered clouds.7 mph77%30.21 "HgN/A
10:50 AM61 °FPassing clouds.10 mph77%30.21 "HgN/A
10:20 AM61 °FSunny.8 mph77%30.18 "Hg10 mi
9:50 AM59 °FSunny.9 mph82%30.18 "Hg10 mi
9:20 AM57 °FPassing clouds.8 mph88%30.18 "HgN/A
8:50 AM55 °FPassing clouds.7 mph88%30.18 "HgN/A
8:20 AM55 °FPassing clouds.6 mph88%30.15 "HgN/A
7:50 AM55 °FPassing clouds.7 mph88%30.15 "HgN/A
7:20 AM55 °FPassing clouds.5 mph94%30.15 "HgN/A
6:50 AM55 °FPassing clouds.5 mph94%30.15 "HgN/A
6:20 AM55 °FPassing clouds.7 mph94%30.15 "HgN/A
5:50 AM57 °FPassing clouds.7 mph88%30.15 "Hg6 mi
5:20 AM57 °FPassing clouds.8 mph88%30.12 "Hg6 mi
4:50 AM57 °FPassing clouds.12 mph88%30.12 "HgN/A
4:20 AM57 °FPassing clouds.12 mph88%30.12 "HgN/A
3:50 AM57 °FPassing clouds.10 mph88%30.12 "HgN/A
3:20 AM59 °FPassing clouds.13 mph88%30.12 "HgN/A
2:50 AM59 °FPassing clouds.12 mph88%30.12 "HgN/A
2:20 AM59 °FPassing clouds.10 mph88%30.12 "HgN/A
1:50 AM59 °FPassing clouds.9 mph88%30.12 "HgN/A
1:20 AM61 °FPassing clouds.13 mph88%30.12 "HgN/A
Weather by CustomWeather, © 2014

See weather overviewHow to use our weather pages